Location: Coopersdale
(40.3556°N, 78.9372°W)
Time: 02:59:15
(UTC+00:00)

Tiros 1 despin weight - Pass Details

Date: 23 January 2021
Orbit: 593 x 642 km, 48.2° (Epoch: 02 March)

Event Time Altitude Azimuth Distance (km) Brightness Sun altitude
Rises 02:16:26 0° 297° (WNW) 2,837 ? -44.3°
Enters shadow 02:17:16 - 295° (WNW) 2,514 ? -44.4°
Reaches altitude 10° 02:18:47 10° 291° (WNW) 1,928 - -44.7°
Maximum altitude 02:23:02 48° 218° (SW) 781 - -45.5°
Drops below altitude 10° 02:27:14 10° 144° (SE) 1,914 - -46.3°
Sets 02:29:34 0° 138° (SE) 2,814 - -46.7°
